Tracking 19242 objects as of 17-Aug-2018
HD Live streaming from Space Station
objects crossing your sky now

FREGAT R/B

Track FREGAT R/B now!


NORAD ID: 37848
Int'l Code: 2011-060C
Perigee: 23,609.5 km
Apogee: 23,657.2 km
Inclination: 56.2 °
Period: 862.1 minutes
Semi major axis: 30004 km
RCS: 2.697 m2 (large)
Launch date: October 21, 2011
Source: Commonwealth of Independent States (former USSR) (CIS)
Launch site: FRENCH GUIANA (FRGUI)

Note: This is a ROCKET BODY
aabbcc
Your satellite tracking list
Your tracking list is empty




NASA's NSSDC Master Catalog

Two Line Element Set (TLE):
1 37848U 11060C   18226.62878778 -.00000054  00000-0  00000+0 0  9999
2 37848  56.1819  62.8860 0007957 309.2876 238.0072  1.67042309 41576
Source of the keplerian elements: AFSPC